Regional Weather Roundup
Issued by NWS

Home | Current Version | Previous Version | Text Only | Print | Product List | Glossary Off
Versions: 1 2 3 4 5 6 7 8 9 10 11 12 13 14 15 16 17 18 19 20 21 22 23 24 25 26 27 28 29 30 31 32 33 34 35 36 37 38 39 40 41 42 43 44 45 46 47 48 49 50

716
ASUS45 KCYS 261310
RWRWY

WYOMING REGIONAL WEATHER ROUNDUP
NATIONAL WEATHER SERVICE CHEYENNE WY
700 AM MDT FRI MAY 26 2017

NOTE:  "FAIR" INDICATES FEW OR NO CLOUDS BELOW 12,000 FEET
WITH NO SIGNIFICANT WEATHER AND/OR OBSTRUCTIONS TO VISIBILITY.

WYZ001-261400-
YELLOWSTONE NATIONAL PARK

CITY           SKY/WX    TMP DP  RH WIND       PRES   REMARKS
LK YELLOWSTONE   N/A     34  28  79 CALM      29.95F
W YELLOWSTONE  NOT AVBL

$$
WYZ002>013-054>058-071-098>099-261400-
NORTHERN WYOMING

CITY           SKY/WX    TMP DP  RH WIND       PRES   REMARKS
JACKSON        CLOUDY    37  30  75 CALM      29.89F
CODY           CLOUDY    46  36  68 CALM      29.96R
GREYBULL       CLOUDY    50  30  46 NW3       29.92R
WORLAND        CLOUDY    48  41  76 SE3       29.93R
SHERIDAN       FAIR      44  37  76 N3        29.94R
BUFFALO        FAIR      42  34  73 W8        29.96R
GILLETTE       FAIR      47  41  80 SW6       29.93S
HULETT         FAIR      45  36  70 SW9       29.93S
NEWCASTLE      FAIR      43  34  70 CALM      29.95S

$$
WYZ014>020-022>026-101>103-261400-
CENTRAL WYOMING

CITY           SKY/WX    TMP DP  RH WIND       PRES   REMARKS
BIG PINEY      CLOUDY    37  32  82 E5        29.92R WCI  33
PINEDALE       CLOUDY    36  32  87 NW9       29.91F WCI  29
DUBOIS         NOT AVBL
LANDER         CLOUDY    43  34  70 W7        29.92S
RIVERTON       PTSUNNY   44  37  76 NE6       29.93S
CASPER         CLOUDY    46  37  71 E8        29.94R
DOUGLAS        FAIR      47  39  74 E5        29.96S

$$
WYZ021-027>030-104>119-261400-
SOUTHERN WYOMING

CITY           SKY/WX    TMP DP  RH WIND       PRES   REMARKS
EVANSTON       CLOUDY    42  32  67 NE12      29.84R
ROCK SPRINGS   CLOUDY    38  34  85 NE10      29.87F WCI  31
RAWLINS        FAIR      39  35  86 E8        29.93F WCI  33
LARAMIE        FAIR      39  35  86 SE15      29.96F WCI  31
CHEYENNE       FAIR      40  33  76 NW3       29.99F
TORRINGTON     FAIR      43  38  82 W5        29.95S

$$




USA.gov is the U.S. government's official web portal to all federal, state and local government web resources and services.